Weather History for Knox, IN

Change the Weather History Date:

Friday, May 3, 2013

  Actual Average (KVPZ) Record (KVPZ)
Temperature  
Mean Temperature 57 °F 55 °F  
Max Temperature 82 °F 66 °F 86 °F (2001)
Min Temperature 41 °F 44 °F 31 °F (2004)
Degree Days  
Heating Degree Days 8 10  
Month to date heating degree days 31  
Since 1 July heating degree days 6090  
Cooling Degree Days 0 0  
Month to date cooling degree days 0  
Year to date cooling degree days 5  
Growing Degree Days 7 (Base 50)    
Moisture  
Dew Point 51 °F    
Average Humidity 83    
Maximum Humidity 97    
Minimum Humidity 52    
Precipitation  
Precipitation 0.00 in 0.14 in 0.15 in (2013)
Month to date precipitation 0.42  
Year to date precipitation 9.60  
Sea Level Pressure  
Sea Level Pressure 30.00 in    
Wind  
Wind Speed 7 mph (NNE)    
Max Wind Speed 13 mph    
Max Gust Speed 25 mph    
Visibility 10 miles    
Events      
T = Trace of Precipitation, MM = Missing Value Source: NWS Daily Summary

Daily Weather History Graph

Daily Weather History Graph

Search for Another Location

Airport:

Trip Planner

Search our weather history database for the weather conditions in past years. The results will help you decide how hot, cold, wet, or windy it might be!

Date:

Astronomy

May. 03, 2013 Rise Set
Actual Time 5:41 AM CDT 7:46 PM CDT
Civil Twilight 5:10 AM CDT 8:16 PM CDT
Nautical Twilight 4:33 AM CDT 8:54 PM CDT
Astronomical Twilight 3:53 AM CDT 9:34 PM CDT
Moon 2:09 AM CDT (5/3) 1:36 PM CDT (5/3)
Length of Visible Light 15h 05m
Length of Day
14h 05m
Last Quarter, 37% of the Moon is Illuminated
May 3
Last Quarter
May 9
New
May 17
First Quarter
May 24
Full
May 31
Last Quarter

Hourly Weather History & Observations

Time (CDT) Temp. Windchill Dew Point Humidity Pressure Visibility Wind Dir Wind Speed Gust Speed Precip Events Conditions
12:15 AM 42.1 °F 36.1 °F 40.1 °F 93% 30.10 in 10.0 mi North 10.4 mph - N/A   Clear
12:35 AM 41.9 °F 35.9 °F 40.1 °F 93% 30.09 in 10.0 mi NNE 10.4 mph - N/A   Scattered Clouds
1:15 AM 41.7 °F 37.3 °F 40.1 °F 94% 30.08 in 10.0 mi North 6.9 mph - N/A   Scattered Clouds
1:35 AM 41.5 °F 35.9 °F 40.3 °F 95% 30.08 in 10.0 mi North 9.2 mph - N/A   Clear
2:15 AM 41.9 °F 36.9 °F 40.5 °F 95% 30.07 in 10.0 mi NNW 8.1 mph - N/A   Mostly Cloudy
2:35 AM 41.9 °F 36.3 °F 40.3 °F 94% 30.07 in 10.0 mi North 9.2 mph - N/A   Overcast
2:55 AM 41.9 °F 36.9 °F 40.6 °F 95% 30.06 in 10.0 mi North 8.1 mph - N/A   Overcast
3:15 AM 41.5 °F 36.4 °F 40.5 °F 96% 30.05 in 10.0 mi North 8.1 mph - N/A   Overcast
3:35 AM 41.5 °F 37.1 °F 40.6 °F 97% 30.05 in 10.0 mi North 6.9 mph - N/A   Overcast
3:55 AM 41.9 °F 38.2 °F 41.0 °F 97% 30.06 in 10.0 mi North 5.8 mph - N/A   Overcast
4:15 AM 42.1 °F 37.7 °F 41.0 °F 96% 30.05 in 10.0 mi North 6.9 mph - N/A   Overcast
4:35 AM 42.1 °F 37.7 °F 41.0 °F 96% 30.05 in 10.0 mi North 6.9 mph - N/A   Overcast
4:55 AM 42.3 °F 37.9 °F 41.0 °F 95% 30.05 in 10.0 mi North 6.9 mph - N/A   Overcast
5:15 AM 42.3 °F 37.9 °F 41.0 °F 95% 30.04 in 10.0 mi North 6.9 mph - N/A   Overcast
5:35 AM 42.6 °F 38.4 °F 41.2 °F 95% 30.05 in 10.0 mi North 6.9 mph - N/A   Overcast
5:55 AM 42.8 °F 39.3 °F 41.2 °F 94% 30.05 in 10.0 mi North 5.8 mph - N/A   Mostly Cloudy
6:15 AM 42.8 °F 40.1 °F 41.4 °F 95% 30.05 in 10.0 mi North 4.6 mph - N/A   Scattered Clouds
6:35 AM 43.2 °F 40.5 °F 41.7 °F 95% 30.05 in 10.0 mi North 4.6 mph - N/A   Mostly Cloudy
6:55 AM 43.5 °F 40.9 °F 42.1 °F 95% 30.05 in 10.0 mi North 4.6 mph - N/A   Scattered Clouds
7:15 AM 44.1 °F 40.8 °F 42.4 °F 94% 30.04 in 10.0 mi NNE 5.8 mph - N/A   Clear
7:35 AM 45.0 °F 42.6 °F 42.8 °F 92% 30.05 in 10.0 mi NNE 4.6 mph - N/A   Scattered Clouds
7:55 AM 45.7 °F 42.7 °F 43.3 °F 92% 30.04 in 10.0 mi NNE 5.8 mph - N/A   Mostly Cloudy
8:15 AM 46.8 °F - 44.1 °F 90% 30.04 in 10.0 mi North 4.6 mph - N/A   Mostly Cloudy
8:35 AM 48.6 °F - 45.3 °F 89% 30.03 in 10.0 mi NNE 3.5 mph - N/A   Mostly Cloudy
8:55 AM 49.5 °F - 45.7 °F 87% 30.03 in 10.0 mi North 4.6 mph - N/A   Overcast
9:15 AM 50.5 °F - 46.4 °F 86% 30.03 in 10.0 mi North 4.6 mph - N/A   Overcast
9:35 AM 52.0 °F - 47.7 °F 85% 30.03 in 10.0 mi North 3.5 mph - N/A   Mostly Cloudy
9:55 AM 54.5 °F - 48.7 °F 81% 30.03 in 10.0 mi NNE 3.5 mph - N/A   Scattered Clouds
10:15 AM 57.4 °F - 49.5 °F 75% 30.03 in 10.0 mi Calm Calm - N/A   Scattered Clouds
10:35 AM 59.7 °F - 50.4 °F 71% 30.02 in 10.0 mi Calm Calm - N/A   Mostly Cloudy
10:55 AM 61.0 °F - 51.4 °F 71% 30.02 in 10.0 mi Calm Calm - N/A   Overcast
11:15 AM 62.1 °F - 52.3 °F 70% 30.01 in 10.0 mi North 3.5 mph - N/A   Overcast
11:35 AM 64.0 °F - 54.1 °F 70% 30.01 in 10.0 mi NW 3.5 mph - N/A   Overcast
11:55 AM 64.2 °F - 54.5 °F 71% 30.00 in 10.0 mi North 4.6 mph - N/A   Overcast
12:15 PM 65.7 °F - 55.2 °F 69% 30.00 in 10.0 mi Calm Calm - N/A   Overcast
12:35 PM 67.5 °F - 55.6 °F 66% 30.00 in 10.0 mi West 5.8 mph - N/A   Mostly Cloudy
12:55 PM 69.1 °F - 56.7 °F 65% 29.99 in 10.0 mi South 10.4 mph - N/A   Mostly Cloudy
1:15 PM 70.3 °F - 57.2 °F 63% 29.99 in 10.0 mi SSW 5.8 mph - N/A   Scattered Clouds
1:35 PM 69.6 °F - 56.7 °F 63% 29.98 in 10.0 mi WSW 6.9 mph - N/A   Mostly Cloudy
1:55 PM 70.5 °F - 57.7 °F 64% 29.98 in 10.0 mi SSW 4.6 mph - N/A   Scattered Clouds
2:15 PM 72.1 °F - 58.3 °F 62% 29.97 in 10.0 mi SSE 6.9 mph - N/A   Mostly Cloudy
2:35 PM 72.7 °F - 58.5 °F 61% 29.96 in 10.0 mi SSE 8.1 mph - N/A   Scattered Clouds
2:55 PM 72.9 °F - 58.3 °F 60% 29.95 in 10.0 mi SE 8.1 mph - N/A   Mostly Cloudy
3:15 PM 73.0 °F - 58.5 °F 60% 29.95 in 10.0 mi ESE 5.8 mph - N/A   Mostly Cloudy
3:55 PM 73.9 °F - 58.1 °F 58% 29.93 in 10.0 mi ESE 9.2 mph - N/A   Scattered Clouds
4:15 PM 73.8 °F - 58.3 °F 58% 29.93 in 10.0 mi SE 6.9 mph - N/A   Mostly Cloudy
4:35 PM 71.1 °F - 59.0 °F 66% 29.93 in 10.0 mi NNE 8.1 mph - N/A   Mostly Cloudy
4:55 PM 68.4 °F - 60.1 °F 75% 29.93 in 10.0 mi NNE 11.5 mph - N/A   Overcast
5:15 PM 69.4 °F - 58.6 °F 68% 29.93 in 10.0 mi ESE 12.7 mph 16.1 mph N/A   Scattered Clouds
5:35 PM 73.4 °F - 54.9 °F 52% 29.93 in 10.0 mi ESE 10.4 mph - N/A   Scattered Clouds
5:55 PM 70.2 °F - 56.8 °F 63% 29.94 in 10.0 mi SSW 12.7 mph 25.3 mph N/A   Overcast
6:15 PM 64.2 °F - 60.6 °F 88% 29.95 in 10.0 mi SW 3.5 mph - N/A   Overcast
6:35 PM 63.0 °F - 60.6 °F 92% 29.94 in 10.0 mi North 3.5 mph - N/A   Overcast
6:55 PM 62.6 °F - 60.6 °F 93% 29.94 in 10.0 mi North 5.8 mph - N/A   Mostly Cloudy
7:15 PM 61.9 °F - 60.3 °F 94% 29.94 in 10.0 mi North 4.6 mph - N/A   Mostly Cloudy
7:35 PM 61.2 °F - 59.9 °F 96% 29.94 in 10.0 mi NNE 6.9 mph - N/A   Scattered Clouds
7:55 PM 61.2 °F - 59.4 °F 94% 29.94 in 10.0 mi NNE 6.9 mph - N/A   Mostly Cloudy
8:15 PM 61.3 °F - 58.8 °F 91% 29.94 in 10.0 mi NE 8.1 mph - N/A   Overcast
8:35 PM 61.7 °F - 58.3 °F 89% 29.94 in 10.0 mi NE 8.1 mph - N/A   Overcast
8:55 PM 61.7 °F - 58.3 °F 89% 29.96 in 10.0 mi SSW 4.6 mph - N/A   Overcast
9:15 PM 60.8 °F - 58.1 °F 91% 29.95 in 10.0 mi NNE 5.8 mph - N/A   Mostly Cloudy
9:35 PM 59.5 °F - 58.1 °F 95% 29.95 in 10.0 mi NNE 5.8 mph - N/A   Scattered Clouds
9:55 PM 59.4 °F - 57.9 °F 95% 29.95 in 10.0 mi NNE 6.9 mph - N/A   Scattered Clouds
10:15 PM 59.0 °F - 57.4 °F 94% 29.95 in 10.0 mi NE 5.8 mph - N/A   Clear
10:35 PM 58.6 °F - 57.0 °F 94% 29.94 in 7.0 mi ENE 5.8 mph - N/A   Scattered Clouds
10:55 PM 60.1 °F - 57.0 °F 90% 29.94 in 10.0 mi East 6.9 mph - N/A   Clear
11:15 PM 62.8 °F - 55.9 °F 78% 29.94 in 10.0 mi ESE 10.4 mph - N/A   Clear
11:35 PM 64.9 °F - 53.4 °F 66% 29.95 in 10.0 mi SE 12.7 mph - N/A   Clear
11:55 PM 64.6 °F - 52.2 °F 64% 29.95 in 10.0 mi SE 10.4 mph - N/A   Clear